Location: Lewisville
(33.0462°N, 96.9942°W)
Time: 10:33:09
(UTC-06:00)

Hubble Space Telescope - Pass Details

Date: 14 December 2021
Orbit: 534 x 538 km, 28.5° (Epoch: 19 January)

Event Time Altitude Azimuth Distance (km) Brightness Sun altitude
Rises 18:55:39 0° 228° (SW) 2,667 5.5 -18.9°
Reaches altitude 10° 18:58:16 10° 213° (SSW) 1,778 4.1 -19.5°
Maximum altitude 19:01:29 22° 162° (SSE) 1,195 2.5 -20.1°
Enters shadow 19:02:06 21° 148° (SSE) 1,223 2.4 -20.3°
